EW5171 Weather Reports


time (UTC)temp
C
wind
direction
speed
KPH
gust
KPH
rain 1hr
cm
rain 24hr
cm
rain mn
cm
humidity
%
barometer
mb
20260831085021 16 153 3.2 9.7 0.03 0.76 0.20 96 1006.7
20260831084533 16 131 3.2 16.1 0.03 0.76 0.20 96 1006.6
20260831084020 16 186 4.8 16.1 0.03 0.76 0.20 96 1006.7
20260831083520 16 202 3.2 14.5 0.03 0.76 0.20 96 1006.7
20260831083035 16 192 3.2 9.7 0.00 0.71 0.18 96 1006.7
20260831082518 16 155 1.6 14.5 0.00 0.71 0.18 95 1006.7
20260831082018 16 188 4.8 16.1 0.00 0.71 0.18 95 1006.8
20260831081517 16 178 3.2 14.5 0.00 0.71 0.18 95 1006.7
20260831081019 16 219 6.4 16.1 0.00 0.71 0.18 95 1006.8
20260831080516 16 198 4.8 16.1 0.00 0.71 0.18 95 1006.8
20260831080026 16 196 4.8 11.3 0.03 0.71 0.18 95 1006.9
20260831075516 16 192 4.8 11.3 0.03 0.79 0.18 95 1006.9
20260831075016 16 187 6.4 11.3 0.03 0.79 0.18 95 1006.9
20260831074517 16 179 3.2 12.9 0.03 0.79 0.18 95 1007.0
20260831074017 16 216 4.8 14.5 0.03 0.79 0.18 95 1006.9
20260831073515 16 178 4.8 14.5 0.03 0.79 0.18 95 1006.9
20260831073019 16 194 3.2 12.9 0.03 0.79 0.18 96 1006.8
20260831072513 16 200 4.8 12.9 0.03 0.79 0.18 96 1007.0
20260831072013 16 182 3.2 11.3 0.03 0.79 0.18 96 1007.0
20260831071512 16 178 1.6 8.0 0.03 0.79 0.18 97 1007.0
20260831071011 16 188 3.2 8.0 0.03 0.79 0.18 96 1007.1
20260831070510 16 186 3.2 8.0 0.03 0.79 0.18 97 1007.0
20260831070011 16 273 1.6 8.0 0.00 0.76 0.15 97 1007.0
20260831065510 16 173 3.2 8.0 0.00 0.79 0.15 97 1007.0
20260831065011 16 177 1.6 8.0 0.00 0.79 0.15 97 1007.1
20260831064509 16 169 0.0 4.8 0.00 0.79 0.15 97 1007.0
20260831064009 16 213 1.6 9.7 0.00 0.79 0.15 97 1007.1
20260831063508 16 186 3.2 9.7 0.00 0.79 0.15 97 1007.1
20260831063008 15 198 3.2 9.7 0.00 0.79 0.15 98 1007.2
20260831062507 15 205 1.6 11.3 0.00 0.79 0.15 97 1007.1
20260831062009 15 200 3.2 6.4 0.03 0.79 0.15 98 1007.2
20260831061504 15 202 0.0 4.8 0.03 0.79 0.15 98 1007.2
20260831061004 15 202 1.6 6.4 0.03 0.79 0.15 98 1007.3
20260831060502 15 202 1.6 6.4 0.03 0.79 0.15 98 1007.3
20260831055559 15 196 0.0 4.8 0.03 0.79 0.15 98 1007.2
20260831055058 14 196 0.0 4.8 0.03 0.79 0.15 98 1007.3
20260831054558 13 227 0.0 1.6 0.03 0.79 0.15 98 1007.3
20260831054055 13 227 0.0 0.0 0.03 0.79 0.15 98 1007.3
20260831053557 12 227 0.0 0.0 0.03 0.79 0.15 97 1007.3
20260831053053 12 227 0.0 0.0 0.03 0.79 0.15 97 1007.4
20260831052553 12 227 0.0 0.0 0.03 0.79 0.15 97 1007.4
20260831052051 12 227 0.0 0.0 0.00 0.79 0.15 97 1007.4
20260831051554 12 227 0.0 0.0 0.03 0.79 0.15 97 1007.5
20260831051050 12 227 0.0 0.0 0.03 0.79 0.15 97 1007.5
20260831050549 12 227 0.0 0.0 0.03 0.79 0.15 97 1007.5
20260831050049 12 227 0.0 0.0 0.03 0.79 0.15 97 1007.6
20260831045548 12 227 0.0 0.0 0.03 0.79 0.15 97 1007.6
20260831045048 12 227 0.0 1.6 0.03 0.79 0.15 97 1007.6
20260831044554 12 227 0.0 1.6 0.03 0.79 0.15 97 1007.6
20260831044047 12 227 0.0 0.0 0.03 0.79 0.15 97 1007.6
20260831043546 12 227 0.0 0.0 0.03 0.79 0.15 97 1007.5
20260831043046 12 227 0.0 0.0 0.03 0.79 0.15 97 1007.5
20260831042549 12 227 0.0 0.0 0.03 0.79 0.15 97 1007.5
20260831042045 12 227 0.0 0.0 0.03 0.79 0.15 97 1007.6
20260831041551 12 227 0.0 0.0 0.00 0.76 0.13 96 1007.6
20260831041048 12 227 0.0 0.0 0.00 0.76 0.13 96 1007.6
20260831040544 12 227 0.0 0.0 0.00 0.76 0.13 96 1007.6
20260831040043 12 227 0.0 0.0 0.00 0.76 0.13 96 1007.6
20260831035546 12 227 0.0 0.0 0.00 0.76 0.13 96 1007.6
20260831035042 12 227 0.0 0.0 0.00 0.76 0.13 96 1007.6
20260831034542 12 227 0.0 0.0 0.00 0.76 0.13 96 1007.6
20260831034042 12 227 0.0 0.0 0.03 0.76 0.13 96 1007.7
20260831033542 13 227 0.0 0.0 0.03 0.76 0.13 96 1007.7
20260831033042 13 227 0.0 0.0 0.03 0.76 0.13 96 1007.7
20260831032541 13 227 0.0 0.0 0.03 0.76 0.13 96 1007.7
20260831032040 13 227 0.0 0.0 0.03 0.76 0.13 96 1007.7
20260831031540 13 227 0.0 0.0 0.03 0.76 0.13 97 1007.7
20260831031043 13 227 0.0 1.6 0.03 0.76 0.13 97 1007.8
20260831030541 13 227 0.0 0.0 0.03 0.76 0.13 97 1007.8
20260831030039 13 227 0.0 3.2 0.05 0.76 0.13 97 1007.9
20260831025538 13 227 0.0 3.2 0.05 0.76 0.13 96 1008.0
20260831025038 13 227 0.0 0.0 0.05 0.76 0.13 96 1008.0
20260831024541 13 227 0.0 0.0 0.05 0.76 0.13 96 1007.9
20260831024038 13 227 0.0 0.0 0.03 0.71 0.10 96 1008.0
20260831023537 13 227 0.0 0.0 0.03 0.71 0.10 96 1007.9
20260831023138 13 227 0.0 0.0 0.03 0.71 0.10 96 1007.9
20260831022537 13 227 0.0 0.0 0.03 0.71 0.10 96 1007.9
20260831022036 13 227 0.0 1.6 0.03 0.71 0.10 96 1007.9
20260831021539 13 227 0.0 1.6 0.03 0.71 0.10 96 1007.9
20260831021038 13 227 0.0 0.0 0.03 0.71 0.10 96 1008.0
20260831020535 13 227 0.0 1.6 0.03 0.71 0.10 96 1008.0
20260831020035 13 227 0.0 3.2 0.00 0.71 0.08 96 1008.1
20260831015534 13 227 0.0 3.2 0.03 0.71 0.08 96 1008.1
20260831015034 13 227 0.0 3.2 0.03 0.71 0.08 96 1008.1
20260831014545 13 227 0.0 3.2 0.03 0.71 0.08 96 1008.1
20260831014033 14 227 0.0 1.6 0.03 0.71 0.08 96 1008.1
20260831013533 14 298 0.0 1.6 0.03 0.71 0.08 96 1008.1
20260831013040 14 298 0.0 1.6 0.03 0.71 0.08 96 1008.2
20260831012533 14 298 0.0 4.8 0.03 0.71 0.08 96 1008.1
20260831012033 14 298 0.0 4.8 0.03 0.71 0.08 96 1008.2
20260831011535 14 238 0.0 4.8 0.03 0.71 0.08 96 1008.2
20260831011032 14 199 0.0 4.8 0.03 0.71 0.08 96 1008.2
20260831010531 14 196 0.0 4.8 0.03 0.71 0.08 96 1008.3
20260831010031 14 190 0.0 4.8 0.03 0.71 0.08 96 1008.3
20260831005531 14 244 0.0 3.2 0.00 0.71 0.05 97 1008.2
20260831005033 14 234 0.0 4.8 0.03 0.71 0.05 97 1008.2
20260831004530 14 240 0.0 4.8 0.03 0.71 0.05 96 1008.2
20260831004033 13 239 0.0 3.2 0.03 0.71 0.05 96 1008.3
20260831003529 13 239 0.0 4.8 0.03 0.71 0.05 96 1008.2
20260831003028 13 239 0.0 4.8 0.03 0.71 0.05 96 1008.3
20260831002528 13 239 0.0 1.6 0.03 0.71 0.05 96 1008.3
20260831002027 13 239 0.0 1.6 0.03 0.71 0.05 96 1008.2
20260831001527 13 239 0.0 1.6 0.03 0.71 0.05 96 1008.2
20260831001028 13 239 0.0 3.2 0.03 0.71 0.05 96 1008.2
20260831000526 13 239 0.0 3.2 0.03 0.71 0.05 96 1008.1
20260831000036 13 239 0.0 1.6 0.03 0.71 0.05 96 1008.1
20260830235524 13 239 0.0 1.6 0.03 0.71 0.05 96 1008.1
20260830235023 13 239 0.0 1.6 0.00 0.69 0.05 96 1008.1
20260830234523 13 239 0.0 3.2 0.03 0.69 0.05 96 1008.1
20260830234024 13 239 0.0 3.2 0.03 0.69 0.05 96 1008.1
20260830233526 13 239 0.0 4.8 0.03 0.69 0.05 96 1008.2
20260830233029 13 239 0.0 4.8 0.03 0.69 0.05 96 1008.3
20260830232522 13 291 0.0 0.0 0.03 0.69 0.05 96 1008.3
20260830232122 13 291 0.0 1.6 0.05 0.69 0.05 96 1008.2
20260830231524 12 291 0.0 3.2 0.05 0.69 0.05 95 1008.1
20260830231021 12 291 0.0 3.2 0.05 0.69 0.05 95 1008.2
20260830230519 12 291 0.0 1.6 0.05 0.69 0.05 95 1008.2
20260830230019 12 291 0.0 1.6 0.05 0.69 0.05 95 1008.1
20260830225519 12 291 0.0 0.0 0.05 0.69 0.05 95 1008.2
20260830225019 12 291 0.0 0.0 0.05 0.69 0.05 95 1008.2
20260830224519 12 291 0.0 1.6 0.03 0.66 0.03 95 1008.2
20260830224018 12 291 0.0 1.6 0.03 0.66 0.03 95 1008.1
20260830223518 12 291 0.0 1.6 0.05 0.66 0.03 95 1008.2
20260830223018 12 291 0.0 1.6 0.05 0.66 0.03 95 1008.3
20260830222517 12 291 0.0 1.6 0.03 0.64 0.00 95 1008.2
20260830222021 12 291 0.0 1.6 0.03 0.64 0.00 94 1008.2
20260830221516 12 291 0.0 0.0 0.03 0.64 0.00 94 1008.2
20260830221016 12 291 0.0 0.0 0.03 0.64 0.00 94 1008.2
20260830220515 13 291 0.0 0.0 0.05 0.64 0.00 94 1008.2
20260830220015 13 291 0.0 1.6 0.05 0.64 0.00 94 1008.1
20260830215514 13 291 0.0 1.6 0.05 0.64 0.64 94 1008.2
20260830215015 13 291 0.0 0.0 0.05 0.64 0.64 93 1008.2
20260830214512 13 291 0.0 0.0 0.05 0.64 0.64 93 1008.1
20260830214011 13 291 0.0 0.0 0.05 0.64 0.64 93 1008.2
20260830213511 13 291 0.0 0.0 0.03 0.61 0.61 93 1008.2
20260830213010 13 291 0.0 0.0 0.03 0.61 0.61 93 1008.1
20260830212509 13 291 0.0 3.2 0.05 0.61 0.61 93 1008.2
20260830212009 13 291 0.0 1.6 0.05 0.61 0.61 93 1008.2
20260830211513 14 291 0.0 1.6 0.05 0.61 0.61 93 1008.1
20260830211008 14 291 0.0 1.6 0.05 0.61 0.61 93 1008.1
20260830210506 14 291 0.0 6.4 0.03 0.61 0.61 93 1008.1
20260830210006 14 291 0.0 6.4 0.03 0.61 0.61 93 1008.1
20260830205510 14 215 0.0 4.8 0.03 0.61 0.61 94 1008.1
20260830205005 14 240 0.0 4.8 0.05 0.61 0.61 93 1008.1
20260830204506 14 294 0.0 4.8 0.05 0.61 0.61 93 1008.0
20260830204005 14 148 0.0 3.2 0.05 0.61 0.61 93 1008.1
20260830203505 14 214 0.0 1.6 0.05 0.61 0.61 94 1008.0
20260830203006 14 214 0.0 3.2 0.05 0.61 0.61 94 1008.0
20260830202505 14 214 0.0 3.2 0.03 0.58 0.58 94 1008.0
20260830202004 14 214 0.0 3.2 0.03 0.58 0.58 93 1007.9
20260830201505 14 214 0.0 6.4 0.03 0.58 0.58 93 1007.9
20260830201002 14 214 0.0 6.4 0.03 0.58 0.58 93 1007.9
20260830200501 14 212 0.0 6.4 0.05 0.58 0.58 93 1007.7
20260830200001 14 194 0.0 6.4 0.05 0.58 0.58 93 1007.7
20260830195604 14 250 0.0 3.2 0.05 0.58 0.58 93 1007.7
20260830195106 14 241 0.0 4.8 0.03 0.56 0.56 93 1007.6
20260830194603 15 289 1.6 4.8 0.05 0.56 0.56 93 1007.5
20260830194102 15 324 0.0 1.6 0.05 0.56 0.56 93 1007.5
20260830193557 15 325 0.0 3.2 0.05 0.56 0.56 93 1007.5
20260830193057 15 324 0.0 3.2 0.05 0.56 0.56 93 1007.5
20260830192556 15 325 0.0 3.2 0.05 0.56 0.56 93 1007.4
20260830192101 15 331 0.0 4.8 0.05 0.56 0.56 93 1007.4
20260830191556 15 277 0.0 4.8 0.05 0.56 0.56 92 1007.3
20260830191054 15 320 0.0 4.8 0.05 0.56 0.56 92 1007.2
20260830190554 15 271 0.0 4.8 0.03 0.53 0.53 92 1007.2
20260830190054 15 272 0.0 8.0 0.05 0.53 0.53 92 1007.1
20260830185553 15 261 1.6 8.0 0.05 0.53 0.53 92 1007.1
20260830185054 15 208 0.0 8.0 0.05 0.53 0.53 91 1007.0
20260830184552 15 81 3.2 8.0 0.03 0.51 0.51 91 1006.9
20260830184051 15 318 0.0 8.0 0.05 0.51 0.51 91 1006.8
20260830183550 16 19 3.2 8.0 0.05 0.51 0.51 91 1006.7
20260830183050 16 218 1.6 14.5 0.05 0.51 0.51 91 1006.6
20260830182549 16 243 3.2 14.5 0.05 0.51 0.51 91 1006.5
20260830182049 16 292 3.2 9.7 0.05 0.51 0.51 91 1006.5
20260830181549 16 196 3.2 9.7 0.05 0.51 0.51 91 1006.4
20260830181048 16 309 1.6 9.7 0.05 0.51 0.51 91 1006.3
20260830180550 16 327 1.6 11.3 0.05 0.51 0.51 91 1006.3
20260830180050 16 215 1.6 12.9 0.05 0.51 0.51 90 1006.2
20260830175545 16 218 0.0 8.0 0.05 0.51 0.51 90 1006.2
20260830175048 16 238 0.0 6.4 0.05 0.51 0.51 90 1006.2
20260830174545 16 190 1.6 6.4 0.05 0.51 0.51 90 1006.1
20260830174045 16 329 0.0 8.0 0.05 0.48 0.48 90 1006.0
20260830173543 16 305 1.6 11.3 0.05 0.48 0.48 90 1005.9
20260830173042 16 281 3.2 11.3 0.05 0.48 0.48 90 1005.8
20260830172547 16 219 3.2 12.9 0.05 0.48 0.48 90 1005.7
20260830172043 16 160 1.6 12.9 0.05 0.48 0.48 90 1005.7
20260830171542 16 267 3.2 12.9 0.05 0.48 0.48 91 1005.6
20260830171045 16 288 3.2 12.9 0.05 0.48 0.48 90 1005.5
20260830170541 17 267 0.0 12.9 0.05 0.48 0.48 90 1005.5
20260830170042 17 263 3.2 17.7 0.05 0.46 0.46 89 1005.4
20260830165541 17 213 3.2 17.7 0.05 0.46 0.46 89 1005.3
20260830165043 17 291 3.2 14.5 0.05 0.46 0.46 89 1005.3
20260830164557 17 294 4.8 16.1 0.03 0.43 0.43 89 1005.2
20260830164041 17 288 3.2 16.1 0.03 0.43 0.43 90 1005.1
20260830163541 17 225 3.2 14.5 0.03 0.43 0.43 90 1005.0
20260830163040 17 269 3.2 14.5 0.03 0.43 0.43 92 1005.0
20260830162540 17 228 1.6 11.3 0.05 0.43 0.43 92 1004.9
20260830162039 17 265 0.0 14.5 0.05 0.43 0.43 93 1004.8
20260830161540 17 302 1.6 14.5 0.05 0.43 0.43 92 1004.7
20260830161038 17 173 1.6 11.3 0.03 0.43 0.43 93 1004.7
20260830160538 17 246 3.2 16.1 0.03 0.43 0.43 93 1004.6
20260830160039 17 225 3.2 16.1 0.03 0.43 0.43 93 1004.6
20260830155538 17 186 3.2 16.1 0.03 0.43 0.43 94 1004.5
20260830155041 17 236 3.2 9.7 0.05 0.43 0.43 95 1004.4
20260830154538 17 253 1.6 8.0 0.05 0.43 0.43 95 1004.3
20260830154038 17 269 1.6 8.0 0.05 0.43 0.43 95 1004.2
20260830153538 17 254 1.6 8.0 0.05 0.43 0.43 95 1004.2
20260830153038 17 201 3.2 11.3 0.05 0.43 0.43 95 1004.1
20260830152537 17 209 1.6 12.9 0.05 0.41 0.41 95 1004.1
20260830152037 17 255 4.8 12.9 0.05 0.41 0.41 95 1004.0
20260830151541 17 285 3.2 12.9 0.05 0.41 0.41 95 1003.9
20260830151037 17 237 3.2 12.9 0.05 0.41 0.41 95 1003.9
20260830150537 17 257 1.6 11.3 0.05 0.41 0.41 95 1003.9
20260830150037 17 258 3.2 11.3 0.05 0.41 0.41 95 1003.8
20260830145537 17 173 1.6 8.0 0.03 0.41 0.38 95 1003.7
20260830145036 17 323 1.6 8.0 0.05 0.41 0.38 95 1003.6
20260830144536 17 325 1.6 8.0 0.05 0.41 0.38 95 1003.6
20260830144035 17 248 1.6 8.0 0.05 0.41 0.38 95 1003.5
20260830143536 17 281 3.2 11.3 0.05 0.41 0.38 95 1003.4
20260830143044 17 271 1.6 8.0 0.05 0.41 0.38 95 1003.4
20260830142535 17 344 1.6 9.7 0.05 0.38 0.36 94 1003.3
20260830142035 17 254 3.2 9.7 0.05 0.38 0.36 94 1003.3
20260830141540 17 234 1.6 6.4 0.05 0.38 0.36 94 1003.2
20260830141034 18 274 1.6 11.3 0.05 0.38 0.36 93 1003.1
20260830140534 18 133 0.0 11.3 0.05 0.38 0.36 93 1003.0
20260830140041 18 291 1.6 8.0 0.05 0.38 0.36 93 1002.9
20260830135534 18 249 1.6 8.0 0.05 0.43 0.36 92 1002.8
20260830135034 18 291 3.2 6.4 0.03 0.41 0.33 92 1002.8
20260830134541 19 296 1.6 6.4 0.03 0.41 0.33 92 1002.7
20260830134035 19 250 0.0 8.0 0.03 0.41 0.33 92 1002.6
20260830133534 19 250 1.6 8.0 0.05 0.41 0.33 92 1002.5
20260830133033 19 326 0.0 6.4 0.03 0.38 0.33 92 1002.4
20260830132534 19 216 1.6 9.7 0.03 0.38 0.33 92 1002.3
20260830132033 19 107 0.0 9.7 0.03 0.38 0.33 92 1002.1
20260830131533 19 282 0.0 8.0 0.03 0.38 0.33 93 1002.1
20260830131032 19 306 0.0 8.0 0.03 0.38 0.33 93 1001.9
20260830130531 19 303 1.6 6.4 0.03 0.38 0.33 93 1001.8
20260830130050 19 221 1.6 3.2 0.03 0.38 0.33 94 1001.8
20260830125531 19 216 0.0 11.3 0.03 0.41 0.33 94 1001.8
20260830125032 19 248 1.6 4.8 0.03 0.41 0.33 94 1001.8
20260830124533 18 260 1.6 6.4 0.05 0.41 0.33 94 1001.7
20260830124031 19 338 1.6 6.4 0.05 0.41 0.33 94 1001.7
20260830123530 19 280 1.6 6.4 0.03 0.38 0.30 94 1001.5
20260830123031 19 253 0.0 4.8 0.03 0.38 0.30 94 1001.5
20260830122531 19 288 1.6 4.8 0.03 0.38 0.30 95 1001.5
20260830122031 19 255 0.0 6.4 0.03 0.38 0.30 95 1001.4
20260830121534 19 304 1.6 11.3 0.03 0.38 0.30 95 1001.3
20260830121029 19 290 3.2 11.3 0.03 0.38 0.30 96 1001.4
20260830120529 19 224 1.6 6.4 0.05 0.38 0.30 96 1001.5
20260830120029 19 244 1.6 11.3 0.05 0.38 0.30 97 1001.4
20260830115527 18 286 0.0 4.8 0.05 0.43 0.30 96 1001.4
20260830115027 18 286 1.6 4.8 0.03 0.41 0.28 96 1001.4
20260830114527 18 249 0.0 8.0 0.05 0.41 0.28 96 1001.3
20260830114026 18 271 1.6 11.3 0.05 0.41 0.28 97 1001.3
20260830113525 18 289 1.6 11.3 0.05 0.41 0.28 97 1001.3
20260830113026 18 252 1.6 9.7 0.05 0.41 0.28 97 1001.3
20260830112524 18 309 1.6 8.0 0.05 0.41 0.28 97 1001.3
20260830112024 18 161 1.6 6.4 0.05 0.41 0.28 97 1001.3
20260830111525 18 206 1.6 6.4 0.05 0.41 0.28 97 1001.2
20260830111022 18 191 1.6 6.4 0.05 0.38 0.25 98 1001.2
20260830110521 18 220 0.0 8.0 0.05 0.38 0.25 98 1001.3
20260830110026 18 248 3.2 8.0 0.05 0.38 0.25 98 1001.3
20260830105519 18 184 1.6 11.3 0.05 0.41 0.25 98 1001.4
20260830105019 17 183 3.2 11.3 0.05 0.41 0.25 98 1001.4
20260830104521 17 271 0.0 12.9 0.05 0.38 0.23 98 1001.3
20260830104019 17 161 4.8 12.9 0.05 0.38 0.23 98 1001.3
20260830103519 18 224 3.2 11.3 0.05 0.38 0.23 98 1001.3
20260830103019 17 173 1.6 8.0 0.05 0.38 0.23 98 1001.2
20260830102517 17 317 1.6 6.4 0.05 0.38 0.23 98 1001.3
20260830102015 17 185 3.2 11.3 0.05 0.36 0.23 98 1001.3
20260830101514 17 277 1.6 11.3 0.05 0.36 0.23 98 1001.3
20260830101014 17 215 1.6 6.4 0.05 0.36 0.23 98 1001.3
20260830100514 17 165 1.6 9.7 0.05 0.36 0.23 98 1001.3
20260830100015 17 160 0.0 9.7 0.05 0.33 0.20 98 1001.3
20260830095514 17 254 1.6 9.7 0.05 0.33 0.20 98 1001.3
20260830095015 17 144 4.8 9.7 0.05 0.33 0.20 98 1001.3
20260830094524 17 190 1.6 8.0 0.05 0.33 0.20 98 1001.2
20260830094015 17 192 1.6 9.7 0.08 0.33 0.20 98 1001.2
20260830093514 17 126 1.6 9.7 0.05 0.33 0.18 98 1001.2
20260830093012 17 209 3.2 9.7 0.05 0.33 0.18 98 1001.3
20260830092515 17 197 4.8 9.7 0.08 0.33 0.18 98 1001.3
20260830092013 17 201 3.2 11.3 0.08 0.33 0.18 98 1001.2
20260830091512 17 184 4.8 11.3 0.05 0.30 0.15 98 1001.2
20260830091011 17 181 4.8 12.9 0.05 0.30 0.15 97 1001.2
20260830090509 17 176 4.8 12.9 0.08 0.30 0.15 97 1001.3
20260830090010 17 175 4.8 11.3 0.08 0.30 0.15 97 1001.3
20260830085512 17 273 4.8 11.3 0.05 0.28 0.15 97 1001.3